Time,TemperatureF,DewpointF,PressureIn,WindDirection,WindDirectionDegrees,WindSpeedMPH,WindSpeedGustMPH,Humidity,HourlyPrecipIn,Conditions,Clouds,dailyrainin,SoftwareType,DateUTC
2013-04-08 00:12:00,62.0,50.0,29.22,NW,308,11.0,-999.0,65,0.00,,,0.00,,2013-04-08 07:12:00,
2013-04-08 00:22:00,62.0,50.0,29.22,NW,308,11.0,-999.0,65,0.00,,,0.00,,2013-04-08 07:22:00,
2013-04-08 00:32:00,62.0,50.0,29.22,NW,308,11.0,-999.0,65,0.00,,,0.00,,2013-04-08 07:32:00,
2013-04-08 00:42:00,62.0,50.0,29.22,NW,308,11.0,-999.0,65,0.00,,,0.00,,2013-04-08 07:42:00,
2013-04-08 02:12:00,59.0,44.0,29.20,WSW,248,5.0,-999.0,58,-99.99,,,0.00,,2013-04-08 09:12:00,
2013-04-08 02:22:00,59.0,44.0,29.20,WSW,248,5.0,-999.0,58,-99.99,,,0.00,,2013-04-08 09:22:00,
2013-04-08 02:33:00,59.0,44.0,29.20,WSW,248,5.0,-999.0,58,-99.99,,,0.00,,2013-04-08 09:33:00,
2013-04-08 02:42:00,59.0,44.0,29.20,WSW,248,5.0,-999.0,58,-99.99,,,0.00,,2013-04-08 09:42:00,
2013-04-08 03:13:00,54.0,43.0,29.17,SW,216,1.0,-999.0,66,0.00,,,0.00,,2013-04-08 10:13:00,
2013-04-08 03:23:00,54.0,43.0,29.17,SW,216,1.0,-999.0,66,0.00,,,0.00,,2013-04-08 10:23:00,
2013-04-08 03:32:00,54.0,43.0,29.17,SW,216,1.0,-999.0,66,0.00,,,0.00,,2013-04-08 10:32:00,
2013-04-08 03:42:00,54.0,43.0,29.17,SW,216,1.0,-999.0,66,0.00,,,0.00,,2013-04-08 10:42:00,
2013-04-08 04:12:00,54.0,44.0,29.14,SSW,213,2.0,-999.0,70,0.00,,,0.00,,2013-04-08 11:12:00,
2013-04-08 04:22:00,54.0,44.0,29.14,SSW,213,2.0,-999.0,70,0.00,,,0.00,,2013-04-08 11:22:00,
2013-04-08 04:32:00,54.0,44.0,29.14,SSW,213,2.0,-999.0,70,0.00,,,0.00,,2013-04-08 11:32:00,
2013-04-08 04:42:00,54.0,44.0,29.14,SSW,213,2.0,-999.0,70,0.00,,,0.00,,2013-04-08 11:42:00,
2013-04-08 05:12:00,52.0,46.0,29.13,SW,218,7.0,-999.0,79,0.00,,,0.00,,2013-04-08 12:12:00,
2013-04-08 05:22:00,52.0,46.0,29.13,SW,218,7.0,-999.0,79,0.00,,,0.00,,2013-04-08 12:22:00,
2013-04-08 05:32:00,52.0,46.0,29.13,SW,218,7.0,-999.0,79,0.00,,,0.00,,2013-04-08 12:32:00,
2013-04-08 05:42:00,52.0,46.0,29.13,SW,218,7.0,-999.0,79,0.00,,,0.00,,2013-04-08 12:42:00,
2013-04-08 06:12:00,52.0,46.0,29.13,WNW,285,10.0,-999.0,80,0.01,,,0.01,,2013-04-08 13:12:00,
2013-04-08 06:22:00,52.0,46.0,29.13,WNW,285,10.0,-999.0,80,0.01,,,0.01,,2013-04-08 13:22:00,
2013-04-08 06:32:00,52.0,46.0,29.13,WNW,285,10.0,-999.0,80,0.01,,,0.01,,2013-04-08 13:32:00,
2013-04-08 06:42:00,52.0,46.0,29.13,WNW,285,10.0,-999.0,80,0.01,,,0.01,,2013-04-08 13:42:00,
2013-04-08 07:22:00,49.0,39.0,29.16,WNW,298,6.0,-999.0,68,0.00,,,0.01,,2013-04-08 14:22:00,
2013-04-08 07:32:00,49.0,39.0,29.16,WNW,298,6.0,-999.0,68,0.00,,,0.01,,2013-04-08 14:32:00,
2013-04-08 07:42:00,49.0,39.0,29.16,WNW,298,6.0,-999.0,68,0.00,,,0.01,,2013-04-08 14:42:00,
2013-04-08 08:33:00,50.0,40.0,29.19,SW,227,1.0,-999.0,69,0.00,,,0.01,,2013-04-08 15:33:00,
2013-04-08 08:42:00,50.0,40.0,29.19,SW,227,1.0,-999.0,69,0.00,,,0.01,,2013-04-08 15:42:00,
2013-04-08 16:42:00,60.0,41.0,29.20,SW,217,2.0,-999.0,49,0.00,,,0.01,,2013-04-08 23:42:00,
2013-04-08 17:22:00,57.0,42.0,29.21,SE,144,4.0,-999.0,59,0.00,,,0.01,,2013-04-09 00:22:00,
2013-04-08 17:32:00,57.0,42.0,29.21,SE,144,4.0,-999.0,59,0.00,,,0.01,,2013-04-09 00:32:00,
2013-04-08 17:42:00,57.0,42.0,29.21,SE,144,4.0,-999.0,59,0.00,,,0.01,,2013-04-09 00:42:00,
2013-04-08 18:12:00,57.0,43.0,29.20,South,170,6.0,-999.0,60,0.00,,,0.01,,2013-04-09 01:12:00,
2013-04-08 18:22:00,57.0,43.0,29.20,South,170,6.0,-999.0,60,0.00,,,0.01,,2013-04-09 01:22:00,
2013-04-08 18:32:00,57.0,43.0,29.20,South,170,6.0,-999.0,60,0.00,,,0.01,,2013-04-09 01:32:00,
2013-04-08 18:42:00,57.0,43.0,29.20,South,170,6.0,-999.0,60,0.00,,,0.01,,2013-04-09 01:42:00,
2013-04-08 19:12:00,57.0,42.0,29.21,SSE,167,6.0,-999.0,58,0.00,,,0.01,,2013-04-09 02:12:00,
2013-04-08 19:22:00,57.0,42.0,29.21,SSE,167,6.0,-999.0,58,0.00,,,0.01,,2013-04-09 02:22:00,
2013-04-08 19:32:00,57.0,42.0,29.21,SSE,167,6.0,-999.0,58,0.00,,,0.01,,2013-04-09 02:32:00,
2013-04-08 19:42:00,57.0,42.0,29.21,SSE,167,6.0,-999.0,58,0.00,,,0.01,,2013-04-09 02:42:00,
2013-04-08 20:12:00,56.0,44.0,29.21,South,180,2.0,-999.0,63,0.00,,,0.01,,2013-04-09 03:12:00,
2013-04-08 20:21:00,56.0,44.0,29.21,South,180,2.0,-999.0,63,0.00,,,0.01,,2013-04-09 03:21:00,
2013-04-08 20:32:00,56.0,44.0,29.21,South,180,2.0,-999.0,63,0.00,,,0.01,,2013-04-09 03:32:00,
2013-04-08 20:42:00,56.0,44.0,29.21,South,180,2.0,-999.0,63,0.00,,,0.01,,2013-04-09 03:42:00,
2013-04-08 21:13:00,55.0,45.0,29.23,SSE,160,8.0,-999.0,70,0.00,,,0.01,,2013-04-09 04:13:00,
2013-04-08 21:23:00,55.0,45.0,29.23,SSE,160,8.0,-999.0,70,0.00,,,0.01,,2013-04-09 04:23:00,
2013-04-08 21:32:00,55.0,45.0,29.23,SSE,160,8.0,-999.0,70,0.00,,,0.01,,2013-04-09 04:32:00,
2013-04-08 21:42:00,55.0,45.0,29.23,SSE,160,8.0,-999.0,70,0.00,,,0.01,,2013-04-09 04:42:00,
2013-04-08 22:12:00,52.0,44.0,29.25,SW,235,2.0,-999.0,74,0.00,,,0.01,,2013-04-09 05:12:00,
2013-04-08 22:22:00,52.0,44.0,29.25,SW,235,2.0,-999.0,74,0.00,,,0.01,,2013-04-09 05:22:00,
2013-04-08 22:32:00,52.0,44.0,29.25,SW,235,2.0,-999.0,74,0.00,,,0.01,,2013-04-09 05:32:00,
2013-04-08 22:42:00,52.0,44.0,29.25,SW,235,2.0,-999.0,74,0.00,,,0.01,,2013-04-09 05:42:00,
2013-04-08 23:12:00,49.0,43.0,29.26,NNW,335,1.0,-999.0,80,0.00,,,0.01,,2013-04-09 06:12:00,
2013-04-08 23:22:00,49.0,43.0,29.26,NNW,335,1.0,-999.0,80,0.00,,,0.01,,2013-04-09 06:22:00,
2013-04-08 23:32:00,49.0,43.0,29.26,NNW,335,1.0,-999.0,80,0.00,,,0.01,,2013-04-09 06:32:00,
2013-04-08 23:42:00,49.0,43.0,29.26,NNW,335,1.0,-999.0,80,0.00,,,0.01,,2013-04-09 06:42:00,